Weather Roundup
Issued by NWS Springfield, MO

Home | Current Version | Previous Version | Text Only | Print | Product List | Glossary On
Versions: 1 2 3 4 5 6 7 8 9 10 11 12 13 14 15 16 17 18 19 20 21 22 23 24 25 26 27 28 29 30 31 32 33 34 35 36 37 38 39 40 41 42 43 44 45 46 47 48 49 50
000
NZUS99 KSGF 201607
HRRSGF

HOURLY WEATHER
NATIONAL WEATHER SERVICE SPRINGFIELD MO
1100 AM CDT SAT SEP 20 2014

......SGF CWA......

CITY           SKY/WX    TMP DP  RH WIND       PRES   REMARKS
SPRINGFIELD    SUNNY     77  68  73 SW10      30.08F
JOPLIN         SUNNY     78  70  76 SW14      30.07S
WEST PLAINS    MOSUNNY   78  67  68 SW9       30.12R
ROLLA          SUNNY     76  67  73 SW10      30.06R
OSAGE BEACH    SUNNY     79  66  65 SW9       30.05F
BRANSON        PTSUNNY   81  68  65 SW8       30.12R

......SURROUNDING SGF CWA......

CITY           SKY/WX    TMP DP  RH WIND       PRES   REMARKS
CHANUTE        CLOUDY    73  71  93 S10       30.06R FOG
PARSONS        CLOUDY    72  71  97 S10       30.07R FOG
EMPORIA        SUNNY     79  71  76 S10       30.02S
GROVE OK       PTSUNNY   79  75  89 S8        30.09R
ROGERS AR      PTSUNNY   79  69  71 SW12      30.12R
SILOAM SPRINGS PTSUNNY   79  68  69 SW12      30.11S
HARRISON AR    MOSUNNY   80  71  74 S7        30.12R
NEAR YELLVILLE MOSUNNY   79  66  65 SE5       30.10S

......KANSAS AND MISSOURI......

CITY           SKY/WX    TMP DP  RH WIND       PRES   REMARKS
KANSAS CTY INT PTSUNNY   77  70  79 SW10      29.99F
DOWNTOWN KC    MOSUNNY   81  70  69 SW12      29.98F
COLUMBIA       MOSUNNY   78  71  79 SW10      30.04S
SEDALIA        SUNNY     79  68  69 SW14      30.04R
ST JOSEPH      CLOUDY    76  69  79 SW15      29.96F
ST LOUIS       PTSUNNY   79  68  69 W12       30.04S
SPIRIT OF STL  MOSUNNY   78  68  71 W15       30.02F
KIRKSVILLE     CLOUDY    71  67  87 SW10      29.97R FOG
WICHITA        MOSUNNY   81  67  62 SW10      30.02R
TOPEKA         SUNNY     81  71  71 SW9       29.98S
OLATHE         SUNNY     78  69  73 SW12      30.01F

......TENNESSEE......

CITY           SKY/WX    TMP DP  RH WIND       PRES   REMARKS
MEMPHIS        SUNNY     82  68  62 S6        30.10R
NASHVILLE      MOSUNNY   81  63  54 S12       30.14F

......ARKANSAS.......

CITY           SKY/WX    TMP DP  RH WIND       PRES   REMARKS
FAYETTEVILLE   MOSUNNY   79  69  71 S12       30.11R
FT SMITH       SUNNY     80  70  71 NE7       30.07S
LITTLE ROCK    MOSUNNY   84  66  54 CALM      30.08R

......OKLAHOMA.......

CITY           SKY/WX    TMP DP  RH WIND       PRES   REMARKS
TULSA          MOSUNNY   79  71  76 S10       30.05R
PONCA CITY     SUNNY     82  70  66 SW10      30.02S
MCALESTER      MOSUNNY   82  71  69 SW9       30.07R
OKLAHOMA CITY  PTSUNNY   80  70  71 S9        30.05R

......IOWA............

CITY           SKY/WX    TMP DP  RH WIND       PRES   REMARKS
DES MOINES     CLOUDY    75  67  76 W12       29.89F
QUAD CITIES    CLOUDY    71  64  78 SW13      29.87R

......ILLINOIS........

CITY           SKY/WX    TMP DP  RH WIND       PRES   REMARKS
QUINCY         PTSUNNY   74  66  76 SW16G23   29.95F
CHICAGO        PTSUNNY   72  62  71 SW13      29.85F



USA.gov is the U.S. government's official web portal to all federal, state and local government web resources and services.